[[{"header":{"parameterUnit":"m.s-1","parameterCategory":2,"la1":30.2991,"la2":30.254,"lo1":-89.0895,"lo2":-89.0444,"dy":0.0017,"dx":0.0017,"nx":28,"ny":28,"refTime":"2025-12-03T03:00:00:Z","depth":"0","parameterNumber":2,"parameterNumberName":"U-component_of_CURRENTS"},"data":[0,0,0,0,0,0,0,0,0,0,0,0,0,0,0,0,0,0,0,0,0,0,0,0,0,0,0,0,0,0,0,0,0,0,0,0,0,0,0,0,0,0,0,0,0,0,0,0,0,0,0,0,0,0,0,0,0,0,-0.2555,-0.2556,0,-0.2574,-0.2574,-0.2574,-0.2538,-0.2537,-0.2536,-0.2535,-0.2507,-0.2507,-0.2508,0,0,0,0,0,0,0,0,0,0,0,0,0,-0.2494,-0.2495,-0.2555,-0.2556,-0.2556,-0.2574,-0.2574,-0.2574,-0.2538,-0.2537,-0.2536,-0.2535,-0.2507,-0.2507,-0.2508,0,0,0,0,0,0,0,0,0,0,0,0,0,-0.2515,-0.2495,-0.2555,-0.2542,-0.2541,-0.2574,-0.2574,-0.2574,-0.2538,-0.2537,-0.2536,-0.2534,-0.2507,-0.2507,-0.2508,-0.2539,0,0,-0.2508,-0.2508,0,0,0,0,0,0,0,0,-0.2514,-0.2517,-0.2543,-0.2543,-0.2542,-0.2554,-0.2542,-0.2561,-0.2539,-0.2537,-0.2535,-0.2533,-0.2521,-0.252,-0.2524,-0.2537,-0.2536,-0.2508,-0.2509,-0.2509,-0.2509,0,0,0,0,0,0,0,-0.2513,-0.2516,-0.256,-0.2544,-0.2543,-0.2537,-0.2538,-0.2546,-0.2535,-0.2537,-0.2535,-0.2541,-0.252,-0.2524,-0.2523,-0.2536,-0.2508,-0.2509,-0.2509,-0.2509,-0.2559,-0.256,0,0,0,0,0,0,-0.2517,-0.2515,-0.256,-0.2561,-0.2527,-0.254,-0.2541,-0.255,-0.2535,-0.2533,-0.2543,-0.254,-0.2525,-0.2523,-0.2522,-0.2545,-0.2509,-0.2509,-0.2509,-0.2558,-0.256,-0.2561,0,0,0,0,0,0,-0.2515,-0.2521,-0.2559,-0.254,-0.2545,-0.2542,-0.2553,-0.2551,-0.2548,-0.2541,-0.2536,-0.2541,-0.2523,-0.2522,-0.2528,-0.2544,-0.2509,-0.2509,-0.2557,-0.2559,-0.256,-0.2598,0,0,0,0,0,0,-0.2513,-0.252,-0.2523,-0.254,-0.2546,-0.258,-0.2555,-0.2553,-0.2556,-0.2552,-0.2538,-0.2534,-0.2522,-0.2528,-0.2529,-0.2543,-0.2509,-0.2555,-0.2558,-0.256,-0.2596,-0.2601,-0.2606,0,0,0,0,0,-0.2511,-0.2525,-0.2523,-0.2529,-0.2552,-0.2581,-0.2583,-0.2575,-0.2557,-0.2564,-0.2553,-0.2534,-0.2542,-0.253,-0.253,-0.2545,-0.2554,-0.2557,-0.256,-0.2593,-0.26,-0.2606,0,0,0,0,0,0,-0.2499,-0.2524,-0.2522,-0.2541,-0.256,-0.2575,-0.258,-0.2578,-0.2576,-0.2566,-0.255,-0.2547,-0.2561,-0.2552,-0.2538,-0.2567,-0.2545,-0.2548,-0.2571,-0.2577,-0.2582,-0.258,-0.251,0,0,0,0,0,-0.25,-0.2513,-0.254,-0.2552,-0.2564,-0.2572,-0.258,-0.258,-0.2584,-0.2581,-0.2574,-0.2569,-0.2576,-0.2574,-0.2579,-0.2595,-0.2578,-0.2606,-0.2611,-0.2615,-0.2615,-0.2613,-0.2618,-0.257,-0.257,-0.257,0,0,-0.2497,-0.2513,-0.2518,-0.255,-0.256,-0.2587,-0.2572,-0.259,-0.2606,-0.258,-0.2591,-0.2589,-0.2586,-0.2604,-0.2609,-0.2594,-0.2619,-0.2619,-0.2622,-0.2619,-0.2616,-0.2621,-0.2625,-0.2571,-0.2571,-0.2571,0,0,-0.2504,-0.2514,-0.253,-0.2553,-0.2579,-0.2592,-0.2598,-0.2619,-0.2619,-0.264,-0.2626,-0.2632,-0.264,-0.2642,-0.2644,-0.2684,-0.2651,-0.2685,-0.2703,-0.2702,-0.2706,-0.2709,-0.2685,-0.2686,-0.2682,-0.2683,-0.2683,0,-0.2498,-0.2522,-0.2539,-0.2568,-0.2585,-0.2596,-0.2621,-0.2637,-0.2654,-0.266,-0.2646,-0.2667,-0.2661,-0.2685,-0.2694,-0.2695,-0.2678,-0.2678,-0.2708,-0.271,-0.2712,-0.2688,-0.2688,-0.2685,-0.2684,-0.2684,-0.2684,0,-0.2521,-0.2542,-0.2556,-0.2593,-0.2618,-0.264,-0.2672,-0.269,-0.2691,-0.2702,-0.2724,-0.2722,-0.2728,-0.2735,-0.2723,-0.2743,-0.272,-0.2717,-0.2688,-0.2719,-0.2692,-0.2691,-0.2688,-0.2687,-0.2686,-0.2686,0,0,-0.2496,-0.2558,-0.2561,-0.2579,-0.2631,-0.2651,-0.2692,-0.2727,-0.2741,-0.276,-0.2774,-0.2795,-0.2785,-0.2787,-0.2779,-0.2776,-0.2773,-0.2749,-0.2748,-0.2719,-0.275,-0.2684,-0.2676,-0.2771,-0.2772,-0.2772,-0.2721,0,-0.2501,-0.2548,-0.2584,-0.2624,-0.2648,-0.2686,-0.272,-0.2755,-0.2773,-0.2792,-0.2803,-0.2813,-0.2809,-0.2803,-0.2806,-0.2783,-0.2775,-0.2786,-0.273,-0.2728,-0.266,-0.2675,-0.2574,-0.2516,-0.272,-0.272,-0.272,0,-0.2504,-0.2535,-0.2575,-0.2632,-0.2646,-0.2673,-0.2719,-0.2754,-0.2797,-0.2811,-0.2834,-0.2836,-0.2846,-0.283,-0.2815,-0.2819,-0.2787,-0.2767,-0.2765,-0.2688,-0.2661,-0.252,-0.2506,-0.2482,-0.2718,-0.2719,-0.2719,0,-0.2457,-0.2524,-0.2549,-0.257,-0.2642,-0.2661,-0.2695,-0.2748,-0.2774,-0.2814,-0.2828,-0.2849,-0.2847,-0.283,-0.2799,-0.28,-0.2767,-0.2764,-0.2677,-0.2671,-0.2566,-0.255,-0.2514,-0.2748,-0.2749,-0.2749,-0.2749,0,-0.2439,-0.2455,-0.2524,-0.2536,-0.2561,-0.2626,-0.2652,-0.2695,-0.275,-0.2771,-0.2823,-0.2834,-0.2845,-0.2833,-0.2801,-0.2732,-0.2769,-0.2676,-0.2656,-0.2576,-0.2562,-0.252,-0.2531,-0.2747,-0.2747,-0.2748,-0.2748,0,-0.2371,-0.2423,-0.245,-0.2518,-0.2536,-0.2549,-0.2619,-0.2634,-0.2707,-0.2735,-0.2747,-0.2813,-0.2797,-0.2798,-0.2762,-0.2721,-0.2612,-0.2636,-0.253,-0.2499,-0.2382,-0.2398,-0.2317,-0.2245,-0.2521,-0.2519,-0.2517,0,-0.2337,-0.2344,-0.241,-0.2414,-0.2437,-0.2472,-0.2489,-0.2586,-0.261,-0.271,-0.271,-0.2739,-0.2733,-0.2677,-0.2614,-0.2543,-0.2531,-0.2402,-0.2391,-0.2356,-0.2361,-0.2363,-0.231,-0.2264,-0.226,-0.2258,-0.2255,0,-0.2255,-0.2278,-0.2295,-0.2311,-0.2327,-0.2355,-0.2394,-0.2418,-0.2524,-0.2564,-0.2604,-0.2617,-0.2601,-0.2501,-0.2433,-0.2371,-0.2327,-0.2338,-0.2333,-0.218,-0.2149,-0.2076,-0.2314,-0.2229,-0.2232,-0.2234,-0.2235,-0.2236,-0.217,-0.216,-0.2179,-0.2179,-0.2199,-0.2204,-0.2185,-0.2252,-0.2284,-0.2329,-0.2431,-0.2441,-0.2403,-0.2297,-0.2229,-0.2089,-0.2139,-0.2022,-0.2049,-0.2059,-0.1975,-0.2147,-0.2027,-0.2028,-0.2029,-0.2031,-0.2031,0,-0.2048,-0.2044,-0.2041,-0.2039,-0.2004,-0.2064,-0.2084,-0.2048,-0.2037,-0.2149,-0.2176,-0.2224,-0.2105,-0.2079,-0.1952,-0.1841,-0.1782,-0.1788,-0.1778,-0.1739,-0.1906,-0.188,-0.1685,-0.1685,-0.1685,-0.1685,-0.1685,-0.1685,-0.1983,-0.1931,-0.193,-0.1832,-0.1824,-0.1739,-0.1718,-0.1701,-0.1746,-0.1793,-0.1897,-0.202,-0.2003,-0.2012,-0.1836,-0.1726,-0.1658,-0.1593,-0.1615,-0.176,-0.1785,-0.1808,-0.1786,-0.1575,-0.1575,-0.1378,-0.1377,-0.1376]},{"header":{"parameterUnit":"m.s-1","parameterCategory":2,"la1":30.2991,"la2":30.254,"lo1":-89.0895,"lo2":-89.0444,"dy":0.0017,"dx":0.0017,"nx":28,"ny":28,"refTime":"2025-12-03T03:00:00:Z","depth":"0","parameterNumber":3,"parameterNumberName":"V-component_of_CURRENTS"},"data":[0,0,0,0,0,0,0,0,0,0,0,0,0,0,0,0,0,0,0,0,0,0,0,0,0,0,0,0,0,0,0,0,0,0,0,0,0,0,0,0,0,0,0,0,0,0,0,0,0,0,0,0,0,0,0,0,0,0,-0.0457,-0.0457,0,-0.0388,-0.0387,-0.0386,-0.0332,-0.0332,-0.0332,-0.0331,-0.0219,-0.0216,-0.0213,0,0,0,0,0,0,0,0,0,0,0,0,0,-0.0491,-0.0491,-0.0457,-0.0457,-0.0456,-0.0388,-0.0387,-0.0386,-0.0333,-0.0332,-0.0332,-0.0331,-0.0219,-0.0216,-0.0213,0,0,0,0,0,0,0,0,0,0,0,0,0,-0.0453,-0.0491,-0.0457,-0.0423,-0.0419,-0.0388,-0.0387,-0.0385,-0.0333,-0.0332,-0.0332,-0.0331,-0.022,-0.0217,-0.0213,-0.0198,0,0,-0.02,-0.0198,0,0,0,0,0,0,0,0,-0.0455,-0.0452,-0.0428,-0.0425,-0.0421,-0.037,-0.0357,-0.0321,-0.0333,-0.0363,-0.0331,-0.0331,-0.0267,-0.0259,-0.0245,-0.0193,-0.0188,-0.02,-0.0197,-0.0196,-0.0195,0,0,0,0,0,0,0,-0.0458,-0.0454,-0.0428,-0.0428,-0.0423,-0.0392,-0.0387,-0.035,-0.0317,-0.0361,-0.0357,-0.0352,-0.0264,-0.0249,-0.0242,-0.0186,-0.02,-0.0196,-0.0194,-0.0192,-0.0104,-0.0104,0,0,0,0,0,0,-0.0474,-0.0457,-0.043,-0.0426,-0.0439,-0.0392,-0.0386,-0.0385,-0.0318,-0.0308,-0.0353,-0.035,-0.0256,-0.0247,-0.0238,-0.0216,-0.0196,-0.0192,-0.019,-0.0104,-0.0104,-0.0104,0,0,0,0,0,0,-0.0475,-0.0472,-0.0433,-0.0441,-0.0434,-0.0393,-0.0392,-0.0384,-0.037,-0.0313,-0.0301,-0.0347,-0.0255,-0.0243,-0.0208,-0.0211,-0.019,-0.0186,-0.0103,-0.0104,-0.0104,-0.0173,0,0,0,0,0,0,-0.0476,-0.0473,-0.0478,-0.0442,-0.0434,-0.0422,-0.0393,-0.0383,-0.0368,-0.0364,-0.0304,-0.0293,-0.0254,-0.0215,-0.0204,-0.0206,-0.0183,-0.0103,-0.0104,-0.0104,-0.0171,-0.0176,-0.018,0,0,0,0,0,-0.0478,-0.049,-0.0479,-0.0475,-0.0442,-0.0423,-0.0416,-0.0383,-0.0369,-0.0367,-0.0326,-0.0295,-0.0208,-0.0212,-0.02,-0.02,-0.0103,-0.0103,-0.0104,-0.0169,-0.0175,-0.018,0,0,0,0,0,0,-0.0506,-0.0485,-0.0472,-0.0476,-0.0454,-0.0415,-0.0411,-0.0389,-0.0356,-0.0351,-0.0296,-0.0282,-0.0253,-0.0217,-0.0222,-0.0174,-0.015,-0.0148,-0.0204,-0.0209,-0.0214,-0.0227,-0.018,0,0,0,0,0,-0.0516,-0.052,-0.0491,-0.0495,-0.0487,-0.045,-0.0438,-0.0418,-0.0384,-0.0369,-0.0327,-0.0282,-0.0244,-0.0221,-0.0183,-0.0156,-0.0116,-0.0147,-0.0152,-0.0156,-0.0158,-0.0102,-0.0102,-0.0104,-0.0104,-0.0104,0,0,-0.0527,-0.0517,-0.0518,-0.0501,-0.048,-0.0479,-0.0442,-0.0431,-0.0424,-0.0362,-0.034,-0.0298,-0.0241,-0.0213,-0.0196,-0.0183,-0.0135,-0.0156,-0.016,-0.016,-0.0102,-0.0102,-0.0102,-0.0104,-0.0104,-0.0104,0,0,-0.0559,-0.0544,-0.056,-0.0547,-0.0526,-0.0503,-0.0504,-0.0469,-0.0447,-0.0423,-0.0376,-0.0337,-0.0281,-0.0239,-0.0211,-0.0216,-0.0164,-0.0205,-0.0234,-0.0181,-0.018,-0.0179,-0.0135,-0.013,-0.0204,-0.0204,-0.0205,0,-0.0574,-0.0589,-0.056,-0.0571,-0.0566,-0.0519,-0.0533,-0.0504,-0.0461,-0.0443,-0.0426,-0.0338,-0.0293,-0.0248,-0.0251,-0.0227,-0.0191,-0.0221,-0.0187,-0.0185,-0.0183,-0.0138,-0.0131,-0.0208,-0.0207,-0.0207,-0.0207,0,-0.0617,-0.0627,-0.0635,-0.0633,-0.0623,-0.0626,-0.0588,-0.057,-0.0538,-0.0504,-0.0457,-0.0392,-0.0339,-0.0318,-0.0286,-0.0248,-0.0227,-0.0204,-0.0178,-0.0187,-0.0139,-0.0131,-0.0213,-0.0211,-0.021,-0.021,0,0,-0.0656,-0.0665,-0.0668,-0.0681,-0.0657,-0.0656,-0.0641,-0.0613,-0.0602,-0.0547,-0.0522,-0.0452,-0.0412,-0.0377,-0.0325,-0.0276,-0.0233,-0.024,-0.0236,-0.0204,-0.012,-0.0079,-0.0065,-0.0204,-0.0203,-0.0202,-0.0096,0,-0.0699,-0.0744,-0.0728,-0.0759,-0.0778,-0.0732,-0.0722,-0.0687,-0.0642,-0.0604,-0.0523,-0.048,-0.0434,-0.0409,-0.0354,-0.0263,-0.0213,-0.0264,-0.0108,-0.0104,-0.0071,-0.0054,-0.0027,0.0073,-0.0087,-0.0086,-0.0084,0,-0.0746,-0.0771,-0.0817,-0.0828,-0.083,-0.0834,-0.0809,-0.0793,-0.0721,-0.0683,-0.0619,-0.0553,-0.0472,-0.0432,-0.0283,-0.0319,-0.023,-0.0155,-0.0149,-0.0079,-0.0046,0.006,0.0095,0.0249,-0.0071,-0.0072,-0.0073,0,-0.0798,-0.0831,-0.0872,-0.0876,-0.0878,-0.0882,-0.0873,-0.0819,-0.0806,-0.0729,-0.0705,-0.0598,-0.0541,-0.0419,-0.0267,-0.0275,-0.0095,-0.0085,0.0039,0.0043,0.0114,0.0122,0.0312,0.0024,0.0024,0.0023,0.0023,0,-0.0853,-0.0885,-0.0902,-0.0926,-0.0966,-0.094,-0.0956,-0.0925,-0.0876,-0.0859,-0.0752,-0.0708,-0.0534,-0.0408,-0.0277,-0.0088,-0.0099,0.0041,0.0079,0.009,0.0094,0.027,0.0329,0.0027,0.0027,0.0026,0.0025,0,-0.0906,-0.0916,-0.0968,-0.0988,-0.0996,-0.1023,-0.1025,-0.1029,-0.0971,-0.0944,-0.0922,-0.0784,-0.0616,-0.0429,-0.0218,-0.0099,0.0175,0.0146,0.0143,0.0178,0.0421,0.0473,0.069,0.0775,0.029,0.0292,0.0293,0,-0.0937,-0.0971,-0.1022,-0.1057,-0.1071,-0.1102,-0.112,-0.1084,-0.1081,-0.0989,-0.0978,-0.0811,-0.0683,-0.0352,-0.0105,0.015,0.0267,0.032,0.0312,0.0451,0.0537,0.0568,0.0625,0.0378,0.038,0.0381,0.0383,0,-0.0994,-0.1011,-0.1053,-0.113,-0.1168,-0.121,-0.1228,-0.1243,-0.1187,-0.1141,-0.105,-0.0937,-0.0603,-0.0298,0.0046,0.0201,0.0434,0.0361,0.0519,0.0636,0.0672,0.0764,0.0281,0.0398,0.0396,0.0395,0.0394,0.0394,-0.1026,-0.1074,-0.1131,-0.1199,-0.1249,-0.1301,-0.133,-0.1329,-0.1317,-0.1236,-0.1117,-0.0916,-0.0459,0.0032,0.0215,0.0615,0.0578,0.0729,0.0784,0.0805,0.0885,0.0428,0.0577,0.0576,0.0576,0.0576,0.0575,0,-0.1064,-0.1118,-0.1194,-0.1275,-0.1339,-0.1345,-0.1386,-0.1393,-0.1376,-0.1263,-0.1142,-0.065,-0.019,0.0242,0.0806,0.1025,0.1066,0.1135,0.1194,0.1234,0.0853,0.0855,0.1055,0.1055,0.1055,0.1055,0.1055,0.1055,-0.1086,-0.1165,-0.1209,-0.1324,-0.1379,-0.1436,-0.1456,-0.1448,-0.1377,-0.1173,-0.091,-0.0708,-0.0035,0.0867,0.1391,0.144,0.161,0.1596,0.1691,0.1435,0.1401,0.1369,0.1388,0.1696,0.1697,0.2053,0.2057,0.206]}],[{"header":{"parameterUnit":"m.s-1","parameterCategory":2,"la1":30.2991,"la2":30.254,"lo1":-89.0895,"lo2":-89.0444,"dy":0.0017,"dx":0.0017,"nx":28,"ny":28,"refTime":"2025-12-03T03:00:00:Z","depth":"2","parameterNumber":2,"parameterNumberName":"U-component_of_CURRENTS"},"data":[0,0,0,0,0,0,0,0,0,0,0,0,0,0,0,0,0,0,0,0,0,0,0,0,0,0,0,0,0,0,0,0,0,0,0,0,0,0,0,0,0,0,0,0,0,0,0,0,0,0,0,0,0,0,0,0,0,0,-0.2492,-0.2492,0,-0.2511,-0.2511,-0.2511,-0.248,-0.2479,-0.2478,-0.2478,-0.2455,-0.2455,-0.2455,0,0,0,0,0,0,0,0,0,0,0,0,0,-0.2433,-0.2434,-0.2491,-0.2492,-0.2492,-0.2511,-0.2511,-0.2511,-0.248,-0.2479,-0.2478,-0.2477,-0.2455,-0.2455,-0.2455,0,0,0,0,0,0,0,0,0,0,0,0,0,-0.2454,-0.2434,-0.2491,-0.2481,-0.248,-0.2511,-0.2511,-0.2511,-0.2481,-0.2479,-0.2478,-0.2477,-0.2455,-0.2455,-0.2455,-0.2484,0,0,-0.2456,-0.2456,0,0,0,0,0,0,0,0,-0.2453,-0.2456,-0.2482,-0.2482,-0.2481,-0.2494,-0.2482,-0.2501,-0.2481,-0.2478,-0.2478,-0.2476,-0.2466,-0.2466,-0.247,-0.2482,-0.2481,-0.2456,-0.2456,-0.2457,-0.2457,0,0,0,0,0,0,0,-0.2451,-0.2455,-0.2497,-0.2483,-0.2482,-0.2477,-0.2478,-0.2486,-0.2477,-0.2478,-0.2477,-0.2483,-0.2465,-0.247,-0.2469,-0.2481,-0.2456,-0.2457,-0.2457,-0.2457,-0.2508,-0.2509,0,0,0,0,0,0,-0.2455,-0.2454,-0.2496,-0.2498,-0.2466,-0.2479,-0.2481,-0.2489,-0.2478,-0.2476,-0.2484,-0.2481,-0.247,-0.2469,-0.2468,-0.2493,-0.2457,-0.2457,-0.2457,-0.2507,-0.2508,-0.251,0,0,0,0,0,0,-0.2453,-0.2458,-0.2496,-0.2477,-0.2482,-0.2482,-0.2492,-0.249,-0.2489,-0.2483,-0.2479,-0.2484,-0.2469,-0.2467,-0.2476,-0.2492,-0.2457,-0.2457,-0.2506,-0.2507,-0.2509,-0.2547,0,0,0,0,0,0,-0.2452,-0.2458,-0.2461,-0.2478,-0.2483,-0.2516,-0.2493,-0.2492,-0.2497,-0.2493,-0.2482,-0.2479,-0.2467,-0.2475,-0.2476,-0.2491,-0.2458,-0.2504,-0.2506,-0.2508,-0.2544,-0.255,-0.2555,0,0,0,0,0,-0.2449,-0.2463,-0.2461,-0.2467,-0.249,-0.2517,-0.252,-0.2513,-0.2498,-0.2505,-0.2497,-0.2479,-0.249,-0.2477,-0.2477,-0.2493,-0.2503,-0.2506,-0.2508,-0.2542,-0.2549,-0.2555,0,0,0,0,0,0,-0.2438,-0.2462,-0.246,-0.2479,-0.2498,-0.2513,-0.2518,-0.2517,-0.2517,-0.2509,-0.2494,-0.2492,-0.2507,-0.2499,-0.2485,-0.2516,-0.2494,-0.2497,-0.2519,-0.2526,-0.2531,-0.2528,-0.2458,0,0,0,0,0,-0.2439,-0.2451,-0.2477,-0.249,-0.2501,-0.251,-0.2518,-0.2519,-0.2525,-0.2523,-0.2517,-0.2514,-0.2522,-0.252,-0.2527,-0.2543,-0.2527,-0.2554,-0.256,-0.2564,-0.2563,-0.2562,-0.2567,-0.2518,-0.2518,-0.2518,0,0,-0.2436,-0.2452,-0.2457,-0.2488,-0.2498,-0.2523,-0.251,-0.2529,-0.2545,-0.2522,-0.2535,-0.2534,-0.2532,-0.2551,-0.2557,-0.2542,-0.2569,-0.2567,-0.2571,-0.2568,-0.2565,-0.257,-0.2574,-0.252,-0.252,-0.2519,0,0,-0.2443,-0.2454,-0.2469,-0.2491,-0.2517,-0.2529,-0.2537,-0.2558,-0.256,-0.2581,-0.2569,-0.2577,-0.2587,-0.2589,-0.2591,-0.2631,-0.26,-0.2633,-0.2651,-0.2651,-0.2655,-0.2657,-0.2635,-0.2636,-0.2631,-0.2631,-0.2631,0,-0.2438,-0.2461,-0.2478,-0.2505,-0.2521,-0.2534,-0.2558,-0.2575,-0.2594,-0.2601,-0.2588,-0.2612,-0.2607,-0.2632,-0.2641,-0.2642,-0.2627,-0.2626,-0.2656,-0.2659,-0.2661,-0.2638,-0.2638,-0.2633,-0.2633,-0.2632,-0.2632,0,-0.246,-0.2481,-0.2494,-0.2529,-0.2554,-0.2576,-0.2608,-0.2627,-0.263,-0.2642,-0.2666,-0.2666,-0.2674,-0.268,-0.2669,-0.2691,-0.2669,-0.2666,-0.2637,-0.2668,-0.2642,-0.2642,-0.2636,-0.2635,-0.2635,-0.2634,0,0,-0.2436,-0.2496,-0.2498,-0.2516,-0.2566,-0.2586,-0.2628,-0.2662,-0.2677,-0.2699,-0.2715,-0.2737,-0.2729,-0.2731,-0.2725,-0.2723,-0.2722,-0.2698,-0.2697,-0.2669,-0.2702,-0.2636,-0.2628,-0.2721,-0.2722,-0.2722,-0.2674,0,-0.2441,-0.2486,-0.252,-0.256,-0.2582,-0.262,-0.2654,-0.269,-0.2709,-0.273,-0.2742,-0.2755,-0.2752,-0.2748,-0.2752,-0.2731,-0.2724,-0.2734,-0.2682,-0.268,-0.2611,-0.2627,-0.2404,-0.2339,-0.2673,-0.2673,-0.2673,0,-0.2444,-0.2473,-0.2512,-0.2566,-0.258,-0.2608,-0.2654,-0.2689,-0.2733,-0.2748,-0.2773,-0.2777,-0.2789,-0.2775,-0.2763,-0.2767,-0.2737,-0.2719,-0.2716,-0.2639,-0.2613,-0.2364,-0.2325,-0.2672,-0.2672,-0.2672,-0.2672,0,-0.2398,-0.2463,-0.2487,-0.2508,-0.2577,-0.2597,-0.263,-0.2684,-0.271,-0.2752,-0.2768,-0.279,-0.2791,-0.2777,-0.2748,-0.275,-0.272,-0.2717,-0.2631,-0.2625,-0.2418,-0.2393,-0.2704,-0.2704,-0.2704,-0.2704,-0.2704,0,-0.238,-0.2397,-0.2464,-0.2475,-0.2501,-0.2564,-0.2591,-0.2634,-0.2689,-0.271,-0.2763,-0.2775,-0.279,-0.278,-0.275,-0.2685,-0.2722,-0.263,-0.2611,-0.2425,-0.2403,-0.2681,-0.2679,-0.2702,-0.2702,-0.2703,-0.2703,0,-0.2316,-0.2366,-0.2392,-0.2459,-0.2477,-0.249,-0.256,-0.2575,-0.2648,-0.2676,-0.2689,-0.2755,-0.2743,-0.2746,-0.2714,-0.2674,-0.2625,-0.2592,-0.2365,-0.2321,-0.2527,-0.2528,-0.2485,-0.2482,-0.248,-0.2478,-0.2476,0,-0.2284,-0.229,-0.2354,-0.2358,-0.2382,-0.2418,-0.2434,-0.253,-0.2553,-0.2652,-0.265,-0.2682,-0.2674,-0.2622,-0.2539,-0.2466,-0.2559,-0.2234,-0.2206,-0.252,-0.2506,-0.2511,-0.2514,-0.1937,-0.1931,-0.1927,-0.1923,0,-0.2204,-0.2228,-0.2244,-0.226,-0.2276,-0.2303,-0.2341,-0.2363,-0.2467,-0.2504,-0.2542,-0.2552,-0.2517,-0.2344,-0.2271,-0.2203,-0.223,-0.2135,-0.2505,-0.2044,-0.2004,-0.1992,-0.2013,-0.188,-0.1884,-0.1887,-0.1889,-0.1891,-0.2124,-0.2114,-0.2132,-0.2133,-0.2153,-0.2156,-0.2136,-0.2192,-0.2219,-0.2232,-0.234,-0.2275,-0.2242,-0.2015,-0.1905,-0.1813,-0.1981,-0.1876,-0.189,-0.1909,-0.1871,-0.1832,-0.1666,-0.1668,-0.1671,-0.1673,-0.1675,0,-0.2004,-0.2002,-0.1999,-0.1997,-0.1959,-0.2021,-0.2037,-0.1984,-0.1957,-0.1999,-0.1999,-0.1775,-0.1655,-0.1641,-0.1427,-0.1394,-0.1372,-0.1334,-0.1292,-0.1335,-0.1374,-0.1309,-0.0953,-0.0951,-0.0949,-0.0948,0,0,-0.1941,-0.1889,-0.1887,-0.1789,-0.1784,-0.1695,-0.1672,-0.1622,-0.1608,-0.1529,-0.1484,-0.1574,-0.1599,-0.1274,-0.1192,-0.1044,-0.1184,-0.0987,-0.1563,-0.1557,-0.1593,-0.1678,-0.1625,0,0,0,0,0]},{"header":{"parameterUnit":"m.s-1","parameterCategory":2,"la1":30.2991,"la2":30.254,"lo1":-89.0895,"lo2":-89.0444,"dy":0.0017,"dx":0.0017,"nx":28,"ny":28,"refTime":"2025-12-03T03:00:00:Z","depth":"2","parameterNumber":3,"parameterNumberName":"V-component_of_CURRENTS"},"data":[0,0,0,0,0,0,0,0,0,0,0,0,0,0,0,0,0,0,0,0,0,0,0,0,0,0,0,0,0,0,0,0,0,0,0,0,0,0,0,0,0,0,0,0,0,0,0,0,0,0,0,0,0,0,0,0,0,0,-0.0357,-0.0356,0,-0.029,-0.0289,-0.0288,-0.0238,-0.0238,-0.0238,-0.0237,-0.0128,-0.0126,-0.0123,0,0,0,0,0,0,0,0,0,0,0,0,0,-0.0388,-0.0387,-0.0357,-0.0356,-0.0355,-0.029,-0.0289,-0.0288,-0.0238,-0.0238,-0.0238,-0.0237,-0.0129,-0.0126,-0.0123,0,0,0,0,0,0,0,0,0,0,0,0,0,-0.0351,-0.0387,-0.0357,-0.0324,-0.0321,-0.029,-0.0289,-0.0288,-0.0238,-0.0238,-0.0238,-0.0237,-0.013,-0.0126,-0.0122,-0.0106,0,0,-0.011,-0.0108,0,0,0,0,0,0,0,0,-0.0354,-0.035,-0.033,-0.0326,-0.0322,-0.0274,-0.026,-0.0225,-0.0238,-0.0268,-0.0237,-0.0237,-0.0174,-0.0167,-0.0153,-0.0101,-0.0096,-0.011,-0.0107,-0.0106,-0.0105,0,0,0,0,0,0,0,-0.0356,-0.0352,-0.0328,-0.0329,-0.0325,-0.0295,-0.0289,-0.0253,-0.0222,-0.0265,-0.0262,-0.0257,-0.0172,-0.0157,-0.015,-0.0095,-0.011,-0.0106,-0.0104,-0.0102,-0.0016,-0.0016,0,0,0,0,0,0,-0.0371,-0.0355,-0.0331,-0.0327,-0.0339,-0.0295,-0.0289,-0.0288,-0.0223,-0.0214,-0.0258,-0.0255,-0.0164,-0.0155,-0.0146,-0.0126,-0.0106,-0.0102,-0.01,-0.0016,-0.0016,-0.0016,0,0,0,0,0,0,-0.0372,-0.037,-0.0333,-0.034,-0.0334,-0.0295,-0.0295,-0.0287,-0.0274,-0.0219,-0.0208,-0.0253,-0.0163,-0.0152,-0.0118,-0.0122,-0.01,-0.0097,-0.0015,-0.0016,-0.0016,-0.0085,0,0,0,0,0,0,-0.0374,-0.0371,-0.0376,-0.0342,-0.0334,-0.0323,-0.0295,-0.0286,-0.0273,-0.0269,-0.0211,-0.02,-0.0162,-0.0124,-0.0114,-0.0116,-0.0093,-0.0015,-0.0015,-0.0016,-0.0082,-0.0087,-0.0091,0,0,0,0,0,-0.0375,-0.0388,-0.0377,-0.0374,-0.0343,-0.0324,-0.0317,-0.0286,-0.0273,-0.0272,-0.0232,-0.0202,-0.0118,-0.0122,-0.0109,-0.011,-0.0015,-0.0015,-0.0016,-0.008,-0.0086,-0.0091,0,0,0,0,0,0,-0.0403,-0.0383,-0.037,-0.0376,-0.0355,-0.0316,-0.0314,-0.0293,-0.0261,-0.0257,-0.0203,-0.019,-0.0162,-0.0127,-0.0132,-0.0085,-0.0061,-0.0059,-0.0115,-0.012,-0.0124,-0.0137,-0.009,0,0,0,0,0,-0.0413,-0.0417,-0.039,-0.0394,-0.0387,-0.0352,-0.034,-0.0321,-0.0289,-0.0275,-0.0234,-0.019,-0.0153,-0.0131,-0.0093,-0.0068,-0.0028,-0.0059,-0.0064,-0.0068,-0.007,-0.0015,-0.0015,-0.0016,-0.0016,-0.0016,0,0,-0.0424,-0.0415,-0.0416,-0.04,-0.038,-0.0379,-0.0343,-0.0334,-0.0328,-0.0268,-0.0247,-0.0207,-0.0151,-0.0123,-0.0107,-0.0094,-0.0048,-0.0068,-0.0072,-0.0072,-0.0015,-0.0015,-0.0015,-0.0016,-0.0016,-0.0016,0,0,-0.0455,-0.0442,-0.0457,-0.0445,-0.0426,-0.0403,-0.0405,-0.0371,-0.0351,-0.0328,-0.0283,-0.0246,-0.0191,-0.015,-0.0122,-0.0128,-0.0076,-0.0117,-0.0146,-0.0093,-0.0093,-0.0092,-0.0049,-0.0044,-0.0116,-0.0116,-0.0117,0,-0.0471,-0.0486,-0.0458,-0.0469,-0.0465,-0.042,-0.0433,-0.0406,-0.0365,-0.0348,-0.0332,-0.0246,-0.0202,-0.0159,-0.0162,-0.0138,-0.0103,-0.0133,-0.01,-0.0098,-0.0096,-0.0052,-0.0045,-0.012,-0.0119,-0.0119,-0.0119,0,-0.0512,-0.0523,-0.053,-0.053,-0.0519,-0.0523,-0.0487,-0.047,-0.044,-0.0407,-0.0362,-0.0299,-0.0248,-0.0227,-0.0196,-0.016,-0.0139,-0.0116,-0.009,-0.01,-0.0053,-0.0045,-0.0125,-0.0123,-0.0122,-0.0122,0,0,-0.0552,-0.0561,-0.0563,-0.0576,-0.0554,-0.0552,-0.0538,-0.0512,-0.0501,-0.0449,-0.0425,-0.0358,-0.0319,-0.0285,-0.0235,-0.0187,-0.0146,-0.0153,-0.0148,-0.0117,-0.0035,0.0003,0.0016,-0.0118,-0.0116,-0.0115,-0.0011,0,-0.0594,-0.0637,-0.0622,-0.0652,-0.067,-0.0626,-0.0617,-0.0583,-0.054,-0.0504,-0.0425,-0.0385,-0.0341,-0.0318,-0.0264,-0.0175,-0.0126,-0.0176,-0.0023,-0.0019,0.001,0.0026,-0.0,0.0093,-0.0003,-0.0001,-0.0,0,-0.0641,-0.0664,-0.0709,-0.0719,-0.0721,-0.0726,-0.0702,-0.0687,-0.0617,-0.0582,-0.052,-0.0456,-0.0379,-0.034,-0.0194,-0.023,-0.0143,-0.007,-0.0064,0.0003,0.0035,0.0091,0.0112,0.0014,0.0013,0.0012,0.0011,0,-0.0692,-0.0723,-0.0763,-0.0768,-0.0769,-0.0773,-0.0765,-0.0713,-0.0701,-0.0628,-0.0604,-0.0501,-0.0447,-0.0327,-0.0179,-0.0187,-0.0012,-0.0001,0.0118,0.0122,0.0146,0.015,0.0106,0.0106,0.0106,0.0105,0.0105,0,-0.0746,-0.0777,-0.0793,-0.0817,-0.0857,-0.0831,-0.0848,-0.0818,-0.0771,-0.0755,-0.0652,-0.061,-0.0441,-0.0318,-0.0189,-0.0007,-0.0016,0.012,0.0156,0.0121,0.0121,0.0091,0.0088,0.0109,0.0108,0.0108,0.0107,0,-0.0799,-0.0808,-0.0859,-0.0879,-0.0886,-0.0914,-0.0917,-0.0921,-0.0866,-0.0839,-0.0819,-0.0685,-0.0523,-0.0341,-0.0134,-0.0018,0.0152,0.022,0.0164,0.0193,0.0248,0.0241,0.0355,0.0357,0.0359,0.0361,0.0362,0,-0.083,-0.0863,-0.0914,-0.0948,-0.0961,-0.0994,-0.1011,-0.0976,-0.0973,-0.0884,-0.0873,-0.0713,-0.0587,-0.0266,-0.0032,0.0215,0.0213,0.0332,0.0317,0.0253,0.0277,0.0266,0.0255,0.0319,0.032,0.0321,0.0322,0,-0.0887,-0.0904,-0.0945,-0.1021,-0.1059,-0.1099,-0.1117,-0.1131,-0.1076,-0.1031,-0.0943,-0.0832,-0.0516,-0.0244,0.0086,0.0225,0.0288,0.0355,0.032,0.0258,0.0227,0.0248,0.0238,0.0328,0.0328,0.0327,0.0327,0.0327,-0.092,-0.0967,-0.1022,-0.109,-0.1139,-0.1188,-0.1216,-0.1208,-0.1194,-0.1096,-0.0994,-0.0783,-0.0521,-0.0044,0.0172,0.038,0.0376,0.0431,0.0425,0.0419,0.0394,0.0369,0.0491,0.0491,0.0491,0.0492,0.0492,0,-0.0955,-0.1011,-0.1085,-0.1163,-0.1221,-0.1233,-0.1271,-0.1255,-0.1229,-0.1099,-0.097,-0.0645,-0.0332,-0.0055,0.028,0.0471,0.0447,0.0499,0.0426,0.0419,0.0413,0.0384,0.048,0.048,0.0481,0.0481,0,0,-0.0975,-0.1051,-0.1094,-0.1203,-0.1261,-0.1307,-0.1326,-0.1276,-0.1181,-0.1035,-0.0864,-0.0637,-0.0307,-0.0073,0.0162,0.0329,0.0321,0.0345,0.0337,0.0215,0.0206,0.036,0.0307,0,0,0,0,0]}],[{"header":{"parameterUnit":"m.s-1","parameterCategory":2,"la1":30.2991,"la2":30.254,"lo1":-89.0895,"lo2":-89.0444,"dy":0.0017,"dx":0.0017,"nx":28,"ny":28,"refTime":"2025-12-03T03:00:00:Z","depth":"4","parameterNumber":2,"parameterNumberName":"U-component_of_CURRENTS"},"data":[0,0,0,0,0,0,0,0,0,0,0,0,0,0,0,0,0,0,0,0,0,0,0,0,0,0,0,0,0,0,0,0,0,0,0,0,0,0,0,0,0,0,0,0,0,0,0,0,0,0,0,0,0,0,0,0,0,0,-0.171,-0.1711,0,-0.1775,-0.1775,-0.1776,-0.1813,-0.1814,-0.1814,-0.1814,-0.1876,-0.1878,-0.1879,0,0,0,0,0,0,0,0,0,0,0,0,0,-0.1628,-0.1629,-0.171,-0.1711,-0.1712,-0.1775,-0.1775,-0.1776,-0.1813,-0.1814,-0.1814,-0.1814,-0.1876,-0.1878,-0.1879,0,0,0,0,0,0,0,0,0,0,0,0,0,-0.1674,-0.1629,-0.171,-0.1739,-0.1743,-0.1774,-0.1775,-0.1776,-0.1813,-0.1814,-0.1814,-0.1814,-0.1875,-0.1877,-0.1879,-0.1884,0,0,-0.1886,-0.1887,0,0,0,0,0,0,0,0,-0.1671,-0.1676,-0.1734,-0.1737,-0.1741,-0.1788,-0.1769,-0.1813,-0.1813,-0.1785,-0.1814,-0.1815,-0.1847,-0.1852,-0.1861,-0.1887,-0.189,-0.1886,-0.1887,-0.1888,-0.1889,0,0,0,0,0,0,0,-0.1668,-0.1674,-0.1734,-0.1735,-0.1739,-0.1752,-0.1759,-0.1778,-0.1812,-0.1787,-0.1791,-0.18,-0.1849,-0.1859,-0.1862,-0.189,-0.1886,-0.1888,-0.1889,-0.189,-0.1999,-0.2,0,0,0,0,0,0,-0.1662,-0.1671,-0.1732,-0.1736,-0.1708,-0.1753,-0.1761,-0.1771,-0.1812,-0.1819,-0.18,-0.1802,-0.1855,-0.186,-0.1865,-0.1942,-0.1888,-0.189,-0.1891,-0.1997,-0.1999,-0.2001,0,0,0,0,0,0,-0.166,-0.1667,-0.173,-0.1706,-0.1715,-0.1754,-0.1766,-0.1772,-0.181,-0.1821,-0.1828,-0.1833,-0.1855,-0.1862,-0.191,-0.1942,-0.1891,-0.1893,-0.1995,-0.1998,-0.2,-0.2052,0,0,0,0,0,0,-0.1657,-0.1666,-0.1685,-0.1706,-0.1716,-0.1767,-0.1766,-0.1773,-0.1814,-0.1818,-0.1852,-0.1857,-0.1856,-0.1907,-0.1912,-0.1944,-0.1895,-0.1993,-0.1996,-0.1999,-0.2048,-0.2056,-0.2062,0,0,0,0,0,-0.1654,-0.1674,-0.1685,-0.1694,-0.1737,-0.1769,-0.1776,-0.1803,-0.1815,-0.1838,-0.1864,-0.1857,-0.193,-0.191,-0.1915,-0.1949,-0.1992,-0.1995,-0.1999,-0.2045,-0.2054,-0.2062,0,0,0,0,0,0,-0.165,-0.168,-0.1693,-0.1722,-0.1753,-0.1776,-0.1803,-0.182,-0.1859,-0.1871,-0.1879,-0.1886,-0.1939,-0.1939,-0.1917,-0.199,-0.1959,-0.1964,-0.1992,-0.2001,-0.2008,-0.1998,-0.1896,0,0,0,0,0,-0.1657,-0.168,-0.171,-0.1737,-0.1754,-0.1784,-0.1806,-0.1827,-0.1857,-0.1875,-0.1901,-0.1928,-0.1954,-0.1974,-0.1996,-0.2037,-0.2017,-0.2062,-0.2069,-0.2075,-0.2072,-0.2075,-0.2082,-0.2013,-0.2013,-0.2013,0,0,-0.1664,-0.1683,-0.1699,-0.1738,-0.1764,-0.1797,-0.1799,-0.1842,-0.1877,-0.1875,-0.1939,-0.1958,-0.1972,-0.2018,-0.2042,-0.2025,-0.2085,-0.208,-0.2085,-0.2078,-0.208,-0.2086,-0.2092,-0.2015,-0.2015,-0.2015,0,0,-0.1679,-0.1708,-0.1731,-0.1761,-0.1806,-0.1825,-0.1844,-0.1888,-0.1918,-0.1973,-0.1982,-0.202,-0.2067,-0.208,-0.209,-0.2151,-0.2124,-0.2165,-0.2193,-0.2197,-0.2202,-0.2207,-0.2185,-0.2187,-0.2167,-0.2168,-0.2168,0,-0.1689,-0.1718,-0.1745,-0.1776,-0.1805,-0.1841,-0.1876,-0.1911,-0.1968,-0.1994,-0.2004,-0.2077,-0.2093,-0.2136,-0.2158,-0.2166,-0.2154,-0.2158,-0.2205,-0.2209,-0.2212,-0.2189,-0.2191,-0.217,-0.217,-0.217,-0.217,0,-0.1711,-0.175,-0.1769,-0.1818,-0.1854,-0.1892,-0.1939,-0.1987,-0.2028,-0.2056,-0.2123,-0.2147,-0.2184,-0.2202,-0.2199,-0.2239,-0.2217,-0.2213,-0.2178,-0.2222,-0.2195,-0.2196,-0.2175,-0.2174,-0.2173,-0.2172,0,0,-0.169,-0.1769,-0.1779,-0.181,-0.1881,-0.1908,-0.1976,-0.2034,-0.2073,-0.2136,-0.2178,-0.2235,-0.2247,-0.2259,-0.2268,-0.2275,-0.2291,-0.2258,-0.2257,-0.2227,-0.2284,-0.2129,-0.2114,-0.2296,-0.2297,-0.2298,-0.2253,0,-0.1701,-0.1758,-0.1801,-0.1866,-0.1898,-0.196,-0.2013,-0.2074,-0.2125,-0.2176,-0.2215,-0.226,-0.227,-0.229,-0.2304,-0.2295,-0.2296,-0.2302,-0.2254,-0.2251,-0.2101,-0.2111,-0.23,-0.2253,-0.2253,-0.2253,-0.2253,0,-0.1698,-0.174,-0.1803,-0.1884,-0.1906,-0.1956,-0.204,-0.2094,-0.217,-0.221,-0.2263,-0.2288,-0.2324,-0.232,-0.2329,-0.2333,-0.2314,-0.2301,-0.2299,-0.2133,-0.2097,-0.2202,-0.2253,-0.2253,-0.2253,-0.2253,-0.2253,0,-0.1646,-0.1738,-0.1787,-0.1818,-0.1917,-0.1964,-0.2021,-0.2105,-0.2148,-0.2229,-0.2259,-0.2309,-0.2332,-0.2332,-0.2318,-0.2326,-0.2302,-0.2306,-0.2148,-0.2136,-0.2267,-0.2263,-0.2302,-0.2302,-0.2302,-0.2302,-0.2302,0,-0.1617,-0.1661,-0.1773,-0.1798,-0.186,-0.1943,-0.2009,-0.2074,-0.2155,-0.2185,-0.2269,-0.2282,-0.2338,-0.2334,-0.2316,-0.2218,-0.2301,-0.2139,-0.2111,-0.229,-0.2289,-0.2266,-0.2263,-0.23,-0.2301,-0.2301,-0.2301,0,-0.1542,-0.1619,-0.1681,-0.1797,-0.1836,-0.188,-0.1994,-0.2026,-0.2125,-0.2164,-0.2189,-0.2267,-0.2252,-0.2276,-0.226,-0.2191,-0.2129,-0.2077,-0.2249,-0.2235,-0.1961,-0.1962,-0.1883,-0.1877,-0.1872,-0.1868,-0.1865,0,-0.1503,-0.1529,-0.166,-0.1691,-0.1748,-0.183,-0.1872,-0.1994,-0.2019,-0.2125,-0.2116,-0.2156,-0.2184,-0.2032,-0.208,-0.2016,-0.2,-0.1952,-0.1969,-0.1935,-0.1918,-0.1926,-0.1932,-0.1857,-0.1855,-0.1854,-0.1853,0,-0.142,-0.1483,-0.1531,-0.1599,-0.1658,-0.1711,-0.1782,-0.1788,-0.1904,-0.2015,-0.198,-0.1961,-0.1938,-0.1917,-0.1879,-0.1842,-0.1973,-0.19,-0.191,-0.1926,-0.1902,-0.1892,-0.1904,-0.1836,-0.1838,-0.184,-0.1841,0,-0.1355,-0.1368,-0.1437,-0.1478,-0.1549,-0.1557,-0.1619,-0.1637,-0.1684,-0.1806,-0.1784,-0.1833,-0.191,-0.1824,-0.1789,-0.1736,-0.1714,-0.1658,-0.1681,-0.17,-0.1661,-0.1605,-0.1408,0,0,0,0,0,-0.1277,-0.1272,-0.1304,-0.1344,-0.1405,-0.1441,-0.1534,-0.1596,-0.1712,-0.1635,-0.1706,-0.1675,-0.1626,-0.1655,-0.1559,-0.1703,-0.1721,-0.1584,-0.167,-0.1739,-0.1759,-0.173,0,0,0,0,0,0,-0.1224,-0.1251,-0.1257,-0.1214,-0.1211,-0.1261,-0.1312,-0.1396,-0.1364,-0.1488,-0.1469,-0.1561,-0.1539,-0.1648,-0.1521,-0.1527,-0.1542,-0.1625,-0.1619,-0.1728,-0.1746,-0.1762,-0.1739,0,0,0,0,0]},{"header":{"parameterUnit":"m.s-1","parameterCategory":2,"la1":30.2991,"la2":30.254,"lo1":-89.0895,"lo2":-89.0444,"dy":0.0017,"dx":0.0017,"nx":28,"ny":28,"refTime":"2025-12-03T03:00:00:Z","depth":"4","parameterNumber":3,"parameterNumberName":"V-component_of_CURRENTS"},"data":[0,0,0,0,0,0,0,0,0,0,0,0,0,0,0,0,0,0,0,0,0,0,0,0,0,0,0,0,0,0,0,0,0,0,0,0,0,0,0,0,0,0,0,0,0,0,0,0,0,0,0,0,0,0,0,0,0,0,-0.015,-0.015,0,-0.0114,-0.0114,-0.0113,-0.0082,-0.0082,-0.0082,-0.0082,-0.0003,-0.0001,0.0,0,0,0,0,0,0,0,0,0,0,0,0,0,-0.0153,-0.0154,-0.015,-0.015,-0.015,-0.0114,-0.0114,-0.0113,-0.0082,-0.0082,-0.0082,-0.0082,-0.0004,-0.0002,0.0001,0,0,0,0,0,0,0,0,0,0,0,0,0,-0.0137,-0.0154,-0.0151,-0.0131,-0.013,-0.0114,-0.0114,-0.0113,-0.0083,-0.0082,-0.0082,-0.0082,-0.0005,-0.0002,0.0001,0.0013,0,0,0.001,0.0011,0,0,0,0,0,0,0,0,-0.0138,-0.0137,-0.0135,-0.0133,-0.0131,-0.0104,-0.0086,-0.0069,-0.0083,-0.0099,-0.0082,-0.0082,-0.0034,-0.0029,-0.0021,0.0017,0.002,0.001,0.0012,0.0013,0.0014,0,0,0,0,0,0,0,-0.0139,-0.0138,-0.0135,-0.0134,-0.0132,-0.0111,-0.0109,-0.0082,-0.0067,-0.0097,-0.0095,-0.0094,-0.0033,-0.0024,-0.0019,0.0021,0.001,0.0012,0.0014,0.0015,0.0074,0.0074,0,0,0,0,0,0,-0.0149,-0.0139,-0.0136,-0.0134,-0.0135,-0.0112,-0.0109,-0.0111,-0.0068,-0.0062,-0.0094,-0.0093,-0.0029,-0.0022,-0.0016,-0.0007,0.0013,0.0016,0.0017,0.0074,0.0074,0.0074,0,0,0,0,0,0,-0.0149,-0.0149,-0.0137,-0.0136,-0.0134,-0.0112,-0.0115,-0.0111,-0.0106,-0.0066,-0.0059,-0.0094,-0.0029,-0.002,0.0001,-0.0004,0.0017,0.002,0.0074,0.0074,0.0074,0.0016,0,0,0,0,0,0,-0.015,-0.015,-0.0157,-0.0137,-0.0134,-0.0135,-0.0116,-0.0111,-0.0106,-0.0104,-0.0064,-0.0056,-0.0028,-0.0003,0.0004,0.0001,0.0022,0.0074,0.0074,0.0074,0.0018,0.0013,0.001,0,0,0,0,0,-0.015,-0.0163,-0.0157,-0.0157,-0.0144,-0.0136,-0.0133,-0.0115,-0.0106,-0.0108,-0.0081,-0.0057,0.0,-0.0001,0.0007,0.0005,0.0075,0.0074,0.0074,0.0019,0.0014,0.001,0,0,0,0,0,0,-0.0167,-0.016,-0.0154,-0.0164,-0.0154,-0.0132,-0.0133,-0.0121,-0.0102,-0.01,-0.006,-0.0051,-0.0034,-0.0007,-0.0009,0.0021,0.0042,0.0043,-0.0002,-0.0007,-0.0011,-0.0021,0.0024,0,0,0,0,0,-0.0175,-0.0183,-0.017,-0.0178,-0.0176,-0.0156,-0.0151,-0.0141,-0.0121,-0.0112,-0.0085,-0.0054,-0.0028,-0.0012,0.0013,0.003,0.0064,0.0035,0.0031,0.0027,0.0025,0.0071,0.0071,0.0072,0.0072,0.0072,0,0,-0.0184,-0.0182,-0.0186,-0.0182,-0.0173,-0.0177,-0.0152,-0.0151,-0.0152,-0.0106,-0.0099,-0.0069,-0.0028,-0.0011,-0.0001,0.0011,0.0044,0.0027,0.0023,0.0023,0.0071,0.0071,0.0071,0.0072,0.0072,0.0072,0,0,-0.0208,-0.0204,-0.0219,-0.0216,-0.021,-0.0197,-0.02,-0.0183,-0.0172,-0.0162,-0.0129,-0.0103,-0.0067,-0.0036,-0.0016,-0.0025,0.0018,-0.0018,-0.0043,0.0001,0.0002,0.0002,0.004,0.0044,-0.0017,-0.0017,-0.0017,0,-0.0219,-0.0237,-0.0222,-0.0235,-0.0238,-0.021,-0.0226,-0.021,-0.0188,-0.0179,-0.0168,-0.011,-0.0078,-0.0048,-0.0053,-0.0034,-0.0005,-0.003,-0.0004,-0.0003,-0.0001,0.0037,0.0043,-0.002,-0.0019,-0.0019,-0.0019,0,-0.0252,-0.0267,-0.0276,-0.0285,-0.0284,-0.0293,-0.0273,-0.0267,-0.0251,-0.0231,-0.0203,-0.0157,-0.0122,-0.0107,-0.0083,-0.0056,-0.0038,-0.0018,0.0005,-0.0005,0.0036,0.0043,-0.0024,-0.0023,-0.0022,-0.0021,0,0,-0.0275,-0.0297,-0.0301,-0.0317,-0.0313,-0.0317,-0.0316,-0.0306,-0.0304,-0.0271,-0.0259,-0.0212,-0.0184,-0.0159,-0.012,-0.008,-0.0045,-0.005,-0.0047,-0.0018,0.0049,0.0044,0.0052,-0.0021,-0.002,-0.0019,0.007,0,-0.0307,-0.035,-0.0347,-0.0382,-0.0401,-0.0379,-0.0382,-0.0366,-0.0341,-0.0321,-0.0263,-0.0238,-0.0204,-0.0189,-0.0144,-0.0071,-0.0029,-0.0072,0.0059,0.0063,0.0056,0.0059,-0.0016,0.0076,0.0077,0.0079,0.008,0,-0.034,-0.0366,-0.0411,-0.0437,-0.0442,-0.0457,-0.0455,-0.0452,-0.041,-0.0388,-0.0346,-0.03,-0.0241,-0.0209,-0.0089,-0.0119,-0.0044,0.0018,0.0024,0.0045,0.0071,0.0092,0.0093,0.0092,0.0091,0.009,0.0089,0,-0.0368,-0.0409,-0.045,-0.046,-0.048,-0.0495,-0.0501,-0.0476,-0.0475,-0.043,-0.0417,-0.0339,-0.0299,-0.0199,-0.0079,-0.0083,0.0062,0.0075,0.0146,0.0147,0.0149,0.0148,0.0166,0.0166,0.0166,0.0166,0.0165,0,-0.04,-0.0433,-0.0472,-0.0495,-0.0542,-0.0538,-0.0568,-0.0556,-0.0534,-0.0528,-0.0458,-0.0427,-0.0294,-0.0196,-0.0087,0.0048,0.0058,0.0142,0.017,0.0122,0.0117,0.0154,0.0152,0.0169,0.0168,0.0168,0.0167,0,-0.0421,-0.0447,-0.05,-0.0542,-0.056,-0.0593,-0.0625,-0.0637,-0.061,-0.0597,-0.0586,-0.049,-0.0363,-0.022,-0.0047,0.0031,0.0166,0.0216,0.015,0.0173,0.0221,0.0215,0.0293,0.0293,0.0294,0.0294,0.0295,0,-0.0434,-0.0465,-0.0539,-0.0578,-0.0604,-0.0652,-0.068,-0.0677,-0.0682,-0.063,-0.062,-0.0506,-0.0424,-0.0183,-0.004,0.0169,0.02,0.0261,0.0241,0.0215,0.0235,0.0228,0.0221,0.0295,0.0296,0.0296,0.0296,0,-0.0456,-0.0487,-0.0531,-0.0615,-0.0666,-0.0716,-0.0753,-0.0762,-0.0741,-0.0722,-0.0632,-0.0507,-0.0361,-0.0183,-0.0017,0.0131,0.0212,0.0267,0.0267,0.0249,0.0219,0.0237,0.023,0.0298,0.0297,0.0297,0.0297,0,-0.0467,-0.0506,-0.0569,-0.0637,-0.0707,-0.0754,-0.0776,-0.0768,-0.0764,-0.0699,-0.0671,-0.0506,-0.0413,-0.0201,-0.0049,0.0094,0.0126,0.0162,0.0167,0.0167,0.01,0.0043,0.0092,0,0,0,0,0,-0.0469,-0.0514,-0.0585,-0.0659,-0.0729,-0.0764,-0.0807,-0.0814,-0.0798,-0.0736,-0.0699,-0.0556,-0.0327,-0.023,-0.0085,-0.005,0.0139,0.0121,0.0181,0.0308,0.0305,0.0248,0,0,0,0,0,0,-0.0473,-0.0538,-0.0578,-0.0657,-0.0708,-0.0774,-0.0802,-0.0795,-0.0754,-0.0719,-0.0594,-0.0526,-0.0303,-0.0399,-0.0081,-0.0039,0.0015,0.023,0.0233,0.0309,0.0307,0.0305,0.0245,0,0,0,0,0]}]]